QTR1160 OTHH-OERK

Flight info

Callsign QTR1160
Flight time 0h 48m
Altitude 38000
Route ULIKA M430 SALWA V975 HSA M430 KIREN V975 GOLNO
Aircraft A320/M-SDE3FGHIRWY/LB1

Departure

Time 2026-05-08 07:07
Airport Hamad International Airport (OTHH)

Arrival

Time 2026-05-08 07:56
Airport King Khalid International Airport (OERK)
Time Latitude Longitude Altitude Speed Heading
2026-05-08 06:44 25.26734 51.60450 29 ft 0 kts 68°
2026-05-08 06:58 25.26726 51.60427 30 ft 4 kts 68°
2026-05-08 06:58 25.26715 51.60399 30 ft 4 kts 68°
2026-05-08 06:58 25.26707 51.60377 30 ft 4 kts 75°
2026-05-08 06:58 25.26706 51.60350 29 ft 4 kts 117°
2026-05-08 06:59 25.26723 51.60331 29 ft 4 kts 156°
2026-05-08 06:59 25.26745 51.60321 29 ft 1 kts 158°
2026-05-08 06:59 25.26746 51.60321 29 ft 0 kts 158°
2026-05-08 07:01 25.26744 51.60321 29 ft 1 kts 158°
2026-05-08 07:01 25.26736 51.60325 29 ft 0 kts 158°
2026-05-08 07:01 25.26731 51.60327 29 ft 1 kts 158°
2026-05-08 07:01 25.26719 51.60332 29 ft 2 kts 158°
2026-05-08 07:02 25.26704 51.60339 29 ft 3 kts 158°
2026-05-08 07:02 25.26678 51.60350 29 ft 7 kts 158°
2026-05-08 07:02 25.26605 51.60382 29 ft 15 kts 158°
2026-05-08 07:02 25.26512 51.60384 29 ft 14 kts 230°
2026-05-08 07:03 25.26439 51.60348 29 ft 12 kts 159°
2026-05-08 07:03 25.26366 51.60382 29 ft 11 kts 158°
2026-05-08 07:03 25.26301 51.60410 30 ft 9 kts 158°
2026-05-08 07:03 25.26246 51.60434 30 ft 8 kts 158°
2026-05-08 07:04 25.26196 51.60456 30 ft 7 kts 158°
2026-05-08 07:04 25.26132 51.60484 29 ft 13 kts 159°
2026-05-08 07:04 25.26037 51.60526 29 ft 15 kts 158°
2026-05-08 07:04 25.25946 51.60566 29 ft 13 kts 158°
2026-05-08 07:05 25.25862 51.60603 29 ft 12 kts 158°
2026-05-08 07:05 25.25784 51.60637 29 ft 12 kts 158°
2026-05-08 07:05 25.25714 51.60668 29 ft 10 kts 156°
2026-05-08 07:05 25.25652 51.60697 29 ft 9 kts 161°
2026-05-08 07:06 25.25600 51.60681 29 ft 9 kts 232°
2026-05-08 07:06 25.25578 51.60591 28 ft 14 kts 266°
2026-05-08 07:06 25.25627 51.60499 27 ft 17 kts 334°
2026-05-08 07:06 25.25909 51.60375 28 ft 78 kts 338°
2026-05-08 07:07 25.26595 51.60075 25 ft 135 kts 339°
2026-05-08 07:07 25.27604 51.59633 271 ft 162 kts 339°
2026-05-08 07:07 25.28639 51.59162 931 ft 164 kts 339°
2026-05-08 07:07 25.29701 51.58693 1606 ft 168 kts 342°
2026-05-08 07:08 25.30873 51.58182 1841 ft 190 kts 342°
2026-05-08 07:08 25.32164 51.57620 2070 ft 215 kts 341°
2026-05-08 07:08 25.33633 51.56979 2451 ft 236 kts 341°
2026-05-08 07:08 25.35191 51.56294 3146 ft 245 kts 341°
2026-05-08 07:09 25.36795 51.55583 3898 ft 254 kts 340°
2026-05-08 07:09 25.38462 51.54837 4727 ft 261 kts 340°
2026-05-08 07:09 25.40159 51.54082 5485 ft 267 kts 339°
2026-05-08 07:09 25.41915 51.53303 6147 ft 277 kts 338°
2026-05-08 07:10 25.43728 51.52500 6873 ft 284 kts 337°
2026-05-08 07:10 25.45558 51.51632 7621 ft 289 kts 329°
2026-05-08 07:10 25.47107 51.50207 8406 ft 293 kts 308°
2026-05-08 07:10 25.48084 51.48227 9189 ft 296 kts 285°
2026-05-08 07:11 25.48340 51.45973 9919 ft 298 kts 263°
2026-05-08 07:11 25.47801 51.43739 10364 ft 310 kts 240°
2026-05-08 07:11 25.46642 51.41631 10591 ft 332 kts 235°
2026-05-08 07:11 25.45377 51.39443 11087 ft 342 kts 236°
2026-05-08 07:12 25.44081 51.37205 11774 ft 347 kts 234°
2026-05-08 07:12 25.42778 51.34952 12487 ft 350 kts 235°
2026-05-08 07:12 25.41459 51.32666 13194 ft 354 kts 235°
2026-05-08 07:12 25.40127 51.30348 13798 ft 360 kts 234°
2026-05-08 07:13 25.38785 51.28002 14417 ft 363 kts 236°
2026-05-08 07:13 25.37433 51.25632 15089 ft 364 kts 235°
2026-05-08 07:13 25.36081 51.23263 15771 ft 365 kts 235°
2026-05-08 07:13 25.34725 51.20893 16468 ft 366 kts 236°
2026-05-08 07:14 25.33355 51.18501 17123 ft 368 kts 235°
2026-05-08 07:14 25.31978 51.16102 17754 ft 371 kts 235°
2026-05-08 07:14 25.30592 51.13687 18363 ft 374 kts 235°
2026-05-08 07:14 25.29196 51.11251 18917 ft 376 kts 235°
2026-05-08 07:15 25.27911 51.08726 19453 ft 380 kts 244°
2026-05-08 07:15 25.27082 51.05940 19995 ft 386 kts 255°
2026-05-08 07:15 25.26774 51.02978 20534 ft 391 kts 266°
2026-05-08 07:15 25.26746 50.99967 21077 ft 393 kts 266°
2026-05-08 07:16 25.26713 50.96943 21632 ft 394 kts 266°
2026-05-08 07:16 25.26689 50.94938 21987 ft 395 kts 266°
2026-05-08 07:16 25.26648 50.91894 22512 ft 397 kts 266°
2026-05-08 07:16 25.26603 50.88828 23026 ft 399 kts 266°
2026-05-08 07:17 25.26557 50.85760 23510 ft 401 kts 267°
2026-05-08 07:17 25.26511 50.82669 23923 ft 403 kts 266°
2026-05-08 07:17 25.26466 50.79564 24350 ft 405 kts 266°
2026-05-08 07:17 25.26421 50.76448 24773 ft 406 kts 266°
2026-05-08 07:18 25.26377 50.73327 25185 ft 407 kts 266°
2026-05-08 07:18 25.26332 50.70193 25601 ft 409 kts 266°
2026-05-08 07:18 25.26289 50.67056 26008 ft 410 kts 266°
2026-05-08 07:18 25.26246 50.63898 26412 ft 411 kts 266°
2026-05-08 07:19 25.26200 50.60728 26816 ft 413 kts 266°
2026-05-08 07:19 25.26151 50.57562 27210 ft 414 kts 265°
2026-05-08 07:19 25.26099 50.54378 27596 ft 415 kts 265°
2026-05-08 07:19 25.26049 50.51180 27987 ft 417 kts 265°
2026-05-08 07:20 25.26046 50.47973 28376 ft 419 kts 267°
2026-05-08 07:20 25.26106 50.44752 28752 ft 421 kts 268°
2026-05-08 07:20 25.26201 50.41518 29126 ft 423 kts 268°
2026-05-08 07:20 25.26304 50.38267 29484 ft 424 kts 268°
2026-05-08 07:21 25.26396 50.35001 29835 ft 425 kts 267°
2026-05-08 07:21 25.26475 50.31740 30135 ft 426 kts 267°
2026-05-08 07:21 25.26545 50.28460 30432 ft 426 kts 266°
2026-05-08 07:21 25.26608 50.25184 30746 ft 427 kts 266°
2026-05-08 07:22 25.26666 50.21943 31018 ft 428 kts 266°
2026-05-08 07:22 25.26726 50.18653 31290 ft 430 kts 266°
2026-05-08 07:22 25.26788 50.15311 31657 ft 428 kts 266°
2026-05-08 07:22 25.26851 50.12026 32049 ft 427 kts 266°
2026-05-08 07:23 25.26913 50.08800 32430 ft 425 kts 266°
2026-05-08 07:23 25.26975 50.05497 32811 ft 424 kts 266°
2026-05-08 07:23 25.27034 50.02290 33179 ft 423 kts 266°
2026-05-08 07:23 25.27093 49.99044 33554 ft 422 kts 266°
2026-05-08 07:24 25.27152 49.95813 33843 ft 422 kts 266°
2026-05-08 07:24 25.27210 49.92589 33894 ft 416 kts 266°
2026-05-08 07:24 25.27326 49.86254 33899 ft 410 kts 266°
2026-05-08 07:25 25.27431 49.79957 33900 ft 410 kts 265°
2026-05-08 07:26 25.27576 49.70509 33900 ft 410 kts 265°
2026-05-08 07:26 25.27676 49.64209 33916 ft 410 kts 265°
2026-05-08 07:27 25.27771 49.57912 33930 ft 410 kts 265°
2026-05-08 07:27 25.27866 49.51622 33931 ft 409 kts 265°
2026-05-08 07:28 25.27650 49.45375 33926 ft 405 kts 259°
2026-05-08 07:28 25.27088 49.39183 33923 ft 405 kts 259°
2026-05-08 07:29 25.26523 49.32988 33919 ft 405 kts 259°
2026-05-08 07:29 25.25961 49.26802 33920 ft 405 kts 259°
2026-05-08 07:30 25.25391 49.20617 33912 ft 405 kts 259°
2026-05-08 07:30 25.24822 49.14439 33914 ft 404 kts 259°
2026-05-08 07:31 25.24253 49.08259 33923 ft 405 kts 259°
2026-05-08 07:31 25.23679 49.02114 33919 ft 405 kts 258°
2026-05-08 07:32 25.23111 48.95931 33916 ft 405 kts 258°
2026-05-08 07:32 25.22538 48.89752 33918 ft 405 kts 258°
2026-05-08 07:33 25.21953 48.83575 33921 ft 404 kts 258°
2026-05-08 07:33 25.21367 48.77401 33923 ft 405 kts 258°
2026-05-08 07:34 25.20784 48.71227 33922 ft 405 kts 258°
2026-05-08 07:34 25.20192 48.65050 33953 ft 404 kts 258°
2026-05-08 07:35 25.19601 48.58877 33952 ft 404 kts 258°
2026-05-08 07:35 25.19011 48.52731 33952 ft 403 kts 258°
2026-05-08 07:36 25.18415 48.46569 33929 ft 404 kts 258°
2026-05-08 07:36 25.17812 48.40373 33923 ft 408 kts 258°
2026-05-08 07:36 25.17507 48.37249 33166 ft 413 kts 258°
2026-05-08 07:37 25.17191 48.34048 31976 ft 424 kts 259°
2026-05-08 07:37 25.16875 48.30814 31233 ft 422 kts 259°
2026-05-08 07:37 25.16566 48.27602 30594 ft 419 kts 259°
2026-05-08 07:37 25.16256 48.24423 29966 ft 415 kts 259°
2026-05-08 07:38 25.15944 48.21271 29231 ft 412 kts 259°
2026-05-08 07:38 25.15634 48.18134 28486 ft 410 kts 259°
2026-05-08 07:38 25.15326 48.15016 27876 ft 406 kts 260°
2026-05-08 07:38 25.15024 48.11948 27377 ft 400 kts 260°
2026-05-08 07:39 25.14727 48.08923 26876 ft 394 kts 260°
2026-05-08 07:39 25.14431 48.05933 26388 ft 389 kts 260°
2026-05-08 07:39 25.14138 48.02995 25925 ft 384 kts 260°
2026-05-08 07:39 25.13847 48.00085 25474 ft 379 kts 260°
2026-05-08 07:40 25.13558 47.97210 25015 ft 375 kts 261°
2026-05-08 07:40 25.13272 47.94369 24585 ft 371 kts 261°
2026-05-08 07:40 25.12990 47.91562 24142 ft 367 kts 261°
2026-05-08 07:40 25.12707 47.88768 23697 ft 365 kts 261°
2026-05-08 07:41 25.12430 47.86035 23214 ft 363 kts 261°
2026-05-08 07:41 25.12113 47.83286 22717 ft 358 kts 256°
2026-05-08 07:41 25.11428 47.80632 22242 ft 353 kts 249°
2026-05-08 07:41 25.10662 47.78101 21788 ft 351 kts 250°
2026-05-08 07:42 25.09899 47.75549 21301 ft 349 kts 250°
2026-05-08 07:42 25.09146 47.73007 20825 ft 348 kts 250°
2026-05-08 07:42 25.08396 47.70471 20351 ft 347 kts 250°
2026-05-08 07:42 25.07650 47.67957 19876 ft 346 kts 250°
2026-05-08 07:43 25.06900 47.65438 19405 ft 345 kts 250°
2026-05-08 07:43 25.06150 47.62928 18931 ft 344 kts 250°
2026-05-08 07:43 25.05399 47.60418 18459 ft 344 kts 250°
2026-05-08 07:43 25.04653 47.57923 17952 ft 343 kts 250°
2026-05-08 07:44 25.03906 47.55426 17474 ft 341 kts 250°
2026-05-08 07:44 25.03167 47.52954 17030 ft 338 kts 250°
2026-05-08 07:44 25.02434 47.50509 16579 ft 336 kts 250°
2026-05-08 07:44 25.01701 47.48078 16365 ft 320 kts 249°
2026-05-08 07:45 25.01004 47.46060 17689 ft 285 kts 247°
2026-05-08 07:45 25.00270 47.43932 17325 ft 305 kts 249°
2026-05-08 07:45 24.99600 47.41699 16514 ft 308 kts 251°
2026-05-08 07:45 24.98970 47.39437 15716 ft 311 kts 252°
2026-05-08 07:46 24.98338 47.37147 14918 ft 313 kts 251°
2026-05-08 07:46 24.97691 47.34856 14157 ft 315 kts 251°
2026-05-08 07:46 24.97024 47.32554 13384 ft 316 kts 250°
2026-05-08 07:46 24.96342 47.30252 12876 ft 317 kts 250°
2026-05-08 07:47 24.95648 47.27941 12390 ft 318 kts 250°
2026-05-08 07:47 24.94952 47.25635 11962 ft 317 kts 250°
2026-05-08 07:47 24.94256 47.23331 11527 ft 316 kts 250°
2026-05-08 07:47 24.93562 47.21036 11105 ft 316 kts 250°
2026-05-08 07:48 24.92867 47.18741 10675 ft 316 kts 250°
2026-05-08 07:48 24.92174 47.16450 10234 ft 315 kts 250°
2026-05-08 07:48 24.91491 47.14187 10085 ft 305 kts 250°
2026-05-08 07:48 24.90834 47.12011 9923 ft 295 kts 250°
2026-05-08 07:49 24.90190 47.09885 9584 ft 293 kts 250°
2026-05-08 07:49 24.89539 47.07743 9148 ft 293 kts 250°
2026-05-08 07:49 24.88900 47.05636 8651 ft 288 kts 249°
2026-05-08 07:49 24.88266 47.03546 7929 ft 288 kts 250°
2026-05-08 07:50 24.87628 47.01454 7200 ft 288 kts 251°
2026-05-08 07:50 24.86990 46.99362 6539 ft 287 kts 251°
2026-05-08 07:50 24.86358 46.97283 5899 ft 286 kts 251°
2026-05-08 07:50 24.85727 46.95208 5290 ft 286 kts 251°
2026-05-08 07:51 24.85090 46.93113 4683 ft 292 kts 251°
2026-05-08 07:51 24.84453 46.91022 4437 ft 281 kts 251°
2026-05-08 07:51 24.83848 46.89038 4373 ft 266 kts 251°
2026-05-08 07:51 24.83284 46.87182 4348 ft 252 kts 251°
2026-05-08 07:52 24.82733 46.85377 4252 ft 240 kts 251°
2026-05-08 07:52 24.82298 46.83644 4158 ft 237 kts 263°
2026-05-08 07:52 24.82363 46.81852 4063 ft 234 kts 284°
2026-05-08 07:52 24.82976 46.80188 3934 ft 231 kts 305°
2026-05-08 07:53 24.84031 46.78890 3817 ft 225 kts 325°
2026-05-08 07:53 24.85333 46.78003 3731 ft 218 kts 333°
2026-05-08 07:53 24.86599 46.77206 3623 ft 204 kts 332°
2026-05-08 07:53 24.87785 46.76457 3493 ft 192 kts 333°
2026-05-08 07:54 24.88906 46.75750 3288 ft 180 kts 332°
2026-05-08 07:54 24.89965 46.75081 3056 ft 171 kts 332°
2026-05-08 07:54 24.90966 46.74449 2846 ft 160 kts 331°
2026-05-08 07:54 24.91905 46.73856 2647 ft 153 kts 331°
2026-05-08 07:55 24.92800 46.73291 2448 ft 145 kts 331°
2026-05-08 07:55 24.93654 46.72743 2267 ft 141 kts 330°
2026-05-08 07:55 24.94495 46.72213 2067 ft 138 kts 332°
2026-05-08 07:55 24.95258 46.71744 2035 ft 104 kts 328°
2026-05-08 07:56 24.95733 46.71429 2033 ft 55 kts 330°
2026-05-08 07:56 24.95948 46.71258 2038 ft 27 kts 307°
2026-05-08 07:56 24.96009 46.71105 2031 ft 0 kts 266°
2026-05-08 07:58 24.96008 46.71101 2030 ft 2 kts 265°
2026-05-08 07:58 24.96005 46.71070 2030 ft 8 kts 262°
2026-05-08 07:59 24.95978 46.70990 2038 ft 14 kts 235°
2026-05-08 07:59 24.95885 46.70999 2033 ft 18 kts 149°
2026-05-08 07:59 24.95768 46.71070 2037 ft 21 kts 147°
2026-05-08 07:59 24.95632 46.71159 2035 ft 24 kts 150°
2026-05-08 08:00 24.95482 46.71253 2033 ft 23 kts 153°
2026-05-08 08:00 24.95381 46.71175 2034 ft 21 kts 238°
2026-05-08 08:00 24.95307 46.71031 2037 ft 23 kts 240°
2026-05-08 08:00 24.95220 46.70881 2034 ft 23 kts 217°
2026-05-08 08:01 24.95105 46.70927 2033 ft 17 kts 154°
2026-05-08 08:01 24.95006 46.70985 2035 ft 15 kts 149°
2026-05-08 08:01 24.94920 46.71040 2036 ft 13 kts 150°
2026-05-08 08:01 24.94842 46.71089 2035 ft 13 kts 151°
2026-05-08 08:02 24.94755 46.71143 2042 ft 15 kts 151°
2026-05-08 08:02 24.94662 46.71202 2036 ft 15 kts 150°
2026-05-08 08:02 24.94576 46.71256 2036 ft 13 kts 150°
2026-05-08 08:02 24.94500 46.71305 2036 ft 12 kts 150°
2026-05-08 08:03 24.94429 46.71350 2032 ft 13 kts 150°
2026-05-08 08:03 24.94355 46.71396 2039 ft 11 kts 150°
2026-05-08 08:03 24.94319 46.71366 2037 ft 6 kts 238°
2026-05-08 08:03 24.94299 46.71328 2042 ft 5 kts 240°
2026-05-08 08:04 24.94284 46.71299 2038 ft 3 kts 239°
2026-05-08 08:04 24.94283 46.71296 2039 ft 0 kts 239°